Location: Erskine
(52.3216°N, 112.8806°W)
Time: 07:45:45
(UTC+00:00)

ISS - Visible Passes

Search period start: 23 April 2024 00:00
Search period end: 03 May 2024 00:00
Orbit: 411 x 418 km, 51.6° (Epoch: 23 April)

Date Brightness Start Highest point End Pass type
(mag) Time Alt. Az. Time Alt. Az. Time Alt. Az.
24 Apr -1.9 11:14:29 10° SSW 11:17:04 21° SSE 11:19:41 10° E visible
25 Apr -1.5 10:26:50 12° SSE 10:28:07 15° SE 10:30:06 10° ESE visible
26 Apr -2.8 11:12:15 11° SW 11:15:08 37° SSE 11:18:15 10° E visible
27 Apr -2.4 10:24:44 21° S 10:25:59 27° SSE 10:28:52 10° E visible
28 Apr -1.9 09:37:06 19° SE 09:37:06 19° SE 09:39:17 10° E visible
28 Apr -3.6 11:09:55 11° WSW 11:13:03 59° SSE 11:16:21 10° E visible
29 Apr -3.3 10:22:12 26° SW 10:23:42 46° SSE 10:26:55 10° E visible
30 Apr -2.9 09:34:24 34° SSE 09:34:24 34° SSE 09:37:23 10° E visible
30 Apr -3.8 11:07:27 10° W 11:10:47 77° S 11:14:07 10° E visible
01 May -1.6 08:46:30 17° ESE 08:46:30 17° ESE 08:47:43 10° E visible
01 May -3.8 10:19:18 22° WSW 10:21:15 67° SSE 10:24:35 10° E visible
02 May -3.7 09:31:19 51° SSW 09:31:41 55° SSE 09:34:58 10° E visible
02 May -3.8 11:04:56 10° W 11:08:17 81° S 11:11:37 10° E visible
